Regional Weather Roundup
Issued by NWS

Home | Current Version | Previous Version | Graphics & Text | Print | Product List | Glossary Off
Versions: 1 2 3 4 5 6 7 8 9 10 11 12 13 14 15 16 17 18 19 20 21 22 23 24 25 26 27 28 29 30 31 32 33 34 35 36 37 38 39 40 41 42 43 44 45 46 47 48 49 50

000
ASUS43 KDTX 050010
RWRMI
MICHIGAN HOURLY REGIONAL WEATHER ROUNDUP
NATIONAL WEATHER SERVICE DETROIT/PONTIAC MI
800 PM EDT SAT JUL 04 2015

NOTE: "FAIR" INDICATES FEW OR NO CLOUDS BELOW 12,000 FEET WITH NO
SIGNIFICANT WEATHER AND/OR OBSTRUCTION TO VISIBILITY.

MIZ047>049-052>055-059>063-066>070-074>076-081>083-050100-
SOUTHEAST LOWER MICHIGAN

CITY           SKY/WX    TMP DP  RH WIND       PRES   REMARKS
ADRIAN         SUNNY     76  57  51 CALM      30.01S
6HR MIN TEMP:  76; 6HR MAX TEMP:  79;

ALMA           SUNNY     78  60  53 SW5       29.98S
ANN ARBOR      SUNNY     74  60  61 W5        30.00S
BAD AXE        PTSUNNY   77  55  45 SW5       29.97S
CARO           SUNNY     74  59  58 SW5       29.97S
DETROIT CITY   SUNNY     76  55  48 S7        29.99S
6HR MIN TEMP:  75; 6HR MAX TEMP:  78;

DETROIT        MOSUNNY   77  56  48 SW8       30.00S
6HR MIN TEMP:  77; 6HR MAX TEMP:  81;

FLINT          SUNNY     77  59  53 SW3       29.99S
6HR MIN TEMP:  77; 6HR MAX TEMP:  82;

GROSSE ILE     SUNNY     72  64  78 S5        29.99R
HILLSDALE      SUNNY     76  59  56 CALM      30.01F
HOWELL         SUNNY     74  56  51 SW3       30.00F
6HR MIN TEMP:  74; 6HR MAX TEMP:  79;


CITY           SKY/WX    TMP DP  RH WIND       PRES   REMARKS
JACKSON        SUNNY     75  59  57 W3        30.01S
6HR MIN TEMP:  75; 6HR MAX TEMP:  78;

LAMBERTVILLE   SUNNY     77  57  50 CALM      30.00S
6HR MIN TEMP:  77; 6HR MAX TEMP:  80;

LANSING        SUNNY     76  57  51 W6        30.00F
6HR MIN TEMP:  76; 6HR MAX TEMP:  80;

LAPEER         FAIR      76  54  45 SW6       29.99S
MASON          SUNNY     74  55  51 W3        30.00F
MONROE         SUNNY     76  57  52 CALM      29.99S
MT. CLEMENS    SUNNY     71  58  62 S5        29.98S
6HR MIN TEMP:  71; 6HR MAX TEMP:  77;

PONTIAC        CLOUDY    76  56  49 NW7       29.99F
6HR MIN TEMP:  75; 6HR MAX TEMP:  79;

PORT HOPE        N/A     65  60  84 E10       29.96S
6HR MIN TEMP:  65; 6HR MAX TEMP:  72;

PORT HURON     SUNNY     73  59  60 CALM      29.99S
TRI CITIES     MOSUNNY   79  58  48 S10       29.97S
6HR MIN TEMP:  79; 6HR MAX TEMP:  83;

MIDLAND        FAIR      78  60  53 SW5       29.95S
TROY           SUNNY     79  52  39 NW6       30.01S
SAGINAW HB     SUNNY     77  54  44 SW8       29.97S
$$
MIZ043>046-050>051-056>058-064>065-071>073-077>080-050100-
SOUTHWEST LOWER MICHIGAN

CITY           SKY/WX    TMP DP  RH WIND       PRES   REMARKS
BATTLE CREEK   SUNNY     77  59  53 N3        30.01S
6HR MIN TEMP:  76; 6HR MAX TEMP:  80;

BENTON HARBOR  SUNNY     74  56  53 CALM      30.00F
6HR MIN TEMP:  74; 6HR MAX TEMP:  77;

BIG RAPIDS     SUNNY     76  57  51 W7        29.98S
6HR MIN TEMP:  76; 6HR MAX TEMP:  81;

COLDWATER      SUNNY     74  56  52 CALM      30.00F
6HR MIN TEMP:  74; 6HR MAX TEMP:  78;

FREMONT        FAIR      73  56  56 SW3       29.99S
HOLLAND        SUNNY     73  58  59 W6        30.01F
6HR MIN TEMP:  73; 6HR MAX TEMP:  78;

GRAND RAPIDS   PTSUNNY   75  59  57 W10       30.00S
6HR MIN TEMP:  75; 6HR MAX TEMP:  81;

IONIA          FAIR      77  61  58 W8        29.99S
KALAMAZOO      SUNNY     76  58  53 NW9       30.01S
6HR MIN TEMP:  76; 6HR MAX TEMP:  81;

LUDINGTON      SUNNY     68  60  75 W5        30.00S
6HR MIN TEMP:  68; 6HR MAX TEMP:  72;

MARSHALL       SUNNY     74  61  62 CALM      30.00S
MOUNT PLEASANT MOSUNNY   79  59  50 SW7       29.96S
6HR MIN TEMP:  79; 6HR MAX TEMP:  83;

MUSKEGON       PTSUNNY   71  58  63 SW6       30.00F
6HR MIN TEMP:  71; 6HR MAX TEMP:  74;

SOUTH HAVEN    SUNNY     72  54  53 N3        30.01S
$$
MIZ016>042-050100-
NORTHERN LOWER MICHIGAN

CITY           SKY/WX    TMP DP  RH WIND       PRES   REMARKS
ALPENA         SUNNY     70  57  63 SE6       29.99R
6HR MIN TEMP:  70; 6HR MAX TEMP:  82;

BEAVER ISLAND  SUNNY     69  58  68 W3        29.99S
6HR MIN TEMP:  69; 6HR MAX TEMP:  75;

BELLAIRE       MOSUNNY   74  55  50 CALM      29.97F
6HR MIN TEMP:  74; 6HR MAX TEMP:  79;

CADILLAC       MOSUNNY   75  61  60 NW5       29.99S
CHARLEVOIX     MOSUNNY   69  57  66 CALM      30.01F
6HR MIN TEMP:  69; 6HR MAX TEMP:  73;

FRANKFORT      SUNNY     71  56  60 W3        29.98S
GAYLORD        MOSUNNY   73  53  49 NW5       30.00S
6HR MIN TEMP:  73; 6HR MAX TEMP:  78;

GRAYLING       MOSUNNY   74  56  53 NW5       30.00R
6HR MIN TEMP:  74; 6HR MAX TEMP:  82;

HARBOR SPRINGS MOSUNNY   64  60  88 SW3       29.98S
HOUGHTON LAKE  MOSUNNY   76  55  48 N3        29.99R
6HR MIN TEMP:  76; 6HR MAX TEMP:  82;

MANISTEE       SUNNY    N/A N/A N/A W7        29.99S
OSCODA         SUNNY     67  56  67 E9        29.97S
PELLSTON       SUNNY     73  58  59 W3        29.98S
6HR MIN TEMP:  73; 6HR MAX TEMP:  79;

ROGERS CITY    SUNNY     72  58  62 CALM      29.99S
TRAVERSE CITY  MOSUNNY   70  60  70 N6        29.97S
6HR MIN TEMP:  70; 6HR MAX TEMP:  77;

$$
MIZ007>008-015-050100-
EASTERN UPPER MICHIGAN

CITY           SKY/WX    TMP DP  RH WIND       PRES   REMARKS
KINROSS        SUNNY     64  54  68 NW7       29.99S
6HR MIN TEMP:  64; 6HR MAX TEMP:  73;

MACKINAC ISLAN SUNNY     68  58  71 NW3       29.98S
6HR MIN TEMP:  67; 6HR MAX TEMP:  71; 6HR PCP:  0.01;

NEWBERRY       MOSUNNY   67  55  65 N6        29.99R
S. S. MARIE    SUNNY     65  54  67 NW7       29.98S
6HR MIN TEMP:  65; 6HR MAX TEMP:  72;

MUNISING         N/A     56  51  84 CALM      29.99S
6HR MIN TEMP:  56; 6HR MAX TEMP:  62;

$$
MIZ004>006-011>014-085-050100-
CENTRAL UPPER MICHIGAN

CITY           SKY/WX    TMP DP  RH WIND       PRES   REMARKS
MANISTIQUE     SUNNY     65  56  72 S3        29.98S
6HR MIN TEMP:  65; 6HR MAX TEMP:  72;

ESCANABA       MOSUNNY   70  57  64 S5        29.97S
6HR MIN TEMP:  70; 6HR MAX TEMP:  73;

MENOMINEE      SUNNY     72  57  60 SE9       29.96S
6HR MIN TEMP:  72; 6HR MAX TEMP:  75;

SAWYER-GWINN   SUNNY     64  54  68 NE8       29.99F
$$
MIZ001>003-009>011-084-050100-
WESTERN UPPER MICHIGAN

CITY           SKY/WX    TMP DP  RH WIND       PRES   REMARKS
IRON MOUNTAIN  MOSUNNY   74  62  66 SE8       29.95F
6HR MIN TEMP:  74; 6HR MAX TEMP:  81;

HOUGHTON       MOSUNNY   63  53  70 E8        29.97F
6HR MIN TEMP:  63; 6HR MAX TEMP:  71;

COPPER HARBOR    N/A     63  53  70 VRB7      29.96F
6HR MIN TEMP:  55; 6HR MAX TEMP:  71;

IRONWOOD       PTSUNNY   75  61  60 N3        29.90S
6HR MIN TEMP:  75; 6HR MAX TEMP:  79;

$$

ABBREVIATIONS USED IN REMARKS
   TC - TEMPERATURE IN CELSIUS
  WCI - WIND CHILL INDEX
   HX - HEAT INDEX
  VSB - VISIBILITY




USA.gov is the U.S. government's official web portal to all federal, state and local government web resources and services.